Regional Weather Roundup
Issued by NWS

Home | Current Version | Previous Version | Graphics & Text | Print | Product List | Glossary On
Versions: 1 2 3 4 5 6 7 8 9 10 11 12 13 14 15 16 17 18 19 20 21 22 23 24 25 26 27 28 29 30 31 32 33 34 35 36 37 38 39 40 41 42 43 44 45 46 47 48 49 50
000
ASUS43 KOAX 050610
RWRNE

WEATHER ROUNDUP FOR NEBRASKA
NATIONAL WEATHER SERVICE OMAHA NE
100 AM CDT SUN JUL 05 2015

NOTES: SATELLITE DATA IS BEING USED TO AUGMENT CLOUD COVER ABOVE
       12000 FEET.
       "FAIR" INDICATES FEW OR NO CLOUDS BELOW 12,000 FEET WITH NO
       SIGNIFICANT WEATHER AND/OR OBSTRUCTIONS TO VISIBILITY.

  * THESE STATIONS DO NOT REPORT WEATHER SUCH AS RAIN...SNOW OR FOG.

NEZ001>004-019>022-054>056-050700-
NEBRASKA PANHANDLE

CITY           SKY/WX    TMP DP  RH WIND       PRES   REMARKS
SCOTTSBLUFF    PTCLDY    70  62  76 E7        29.87F
6HR MIN TEMP:  69; 6HR MAX TEMP:  93; 6HR PCP:  0.04;

ALLIANCE       PTCLDY    70  63  78 S8        29.89R
6HR MIN TEMP:  66; 6HR MAX TEMP:  85;

CHADRON        PTCLDY    67  62  84 E3        29.83F
6HR MIN TEMP:  66; 6HR MAX TEMP:  92;

KIMBALL          N/A    N/A N/A N/A MISG        N/A
SIDNEY         CLOUDY    75  62  64 SE10      29.92F
6HR MIN TEMP:  75; 6HR MAX TEMP:  92;

$$

NEZ057>060-069>072-079>082-050700-
SOUTHWEST NEBRASKA

CITY           SKY/WX    TMP DP  RH WIND       PRES   REMARKS
NORTH PLATTE   CLEAR     76  63  64 SE9       29.88F
6HR MIN TEMP:  75; 6HR MAX TEMP:  89;

IMPERIAL       CLOUDY    78  62  57 SE12      29.89F
6HR MIN TEMP:  78; 6HR MAX TEMP:  94;

LEXINGTON      MOCLDY    76  65  68 S14       29.89F
MCCOOK         PTCLDY    77  62  59 SE8       29.88F
6HR MIN TEMP:  77; 6HR MAX TEMP:  92;

OGALLALA       MOCLDY    77  63  60 S12       29.88S
$$

NEZ005>010-023>029-035>040-094-050700-
NORTH CENTRAL NEBRASKA

CITY           SKY/WX    TMP DP  RH WIND       PRES   REMARKS
VALENTINE      CLOUDY    78  63  59 S9G17     29.83S
6HR MIN TEMP:  78; 6HR MAX TEMP:  90;

AINSWORTH      CLOUDY    76  65  70 S13       29.85S
BROKEN BOW     CLOUDY    75  64  68 SE12      29.89F
6HR MIN TEMP:  75; 6HR MAX TEMP:  86;

O`NEILL        MOCLDY    73  65  76 SE10      29.88S
ORD            CLOUDY    73  63  70 SE10      29.87F
6HR MIN TEMP:  73; 6HR MAX TEMP:  85;

THEDFORD       CLOUDY    78  65  66 S21       29.87S
$$

NEZ041-046>049-061>064-073>077-083>087-050700-
SOUTH CENTRAL NEBRASKA

CITY           SKY/WX    TMP DP  RH WIND       PRES   REMARKS
GRAND ISLAND   CLOUDY    73  63  70 S14       29.92S
6HR MIN TEMP:  73; 6HR MAX TEMP:  83;

AURORA         CLOUDY    71  66  83 SE13      29.93R
HASTINGS       CLOUDY    73  62  68 S13       29.92R
6HR MIN TEMP:  73; 6HR MAX TEMP:  84;

HEBRON         MOCLDY    72  63  72 SE8       29.94R
HOLDREGE       MOCLDY    73  62  67 S12       29.91S
KEARNEY *      CLOUDY    73  63  68 SE13      29.91S
YORK           CLOUDY    72  64  78 S14       29.94R
$$

NEZ011>018-030>034-042>045-050700-
NORTHEAST NEBRASKA

CITY           SKY/WX    TMP DP  RH WIND       PRES   REMARKS
NORFOLK        MOCLDY    71  65  81 SE10      29.90F
6HR MIN TEMP:  69; 6HR MAX TEMP:  80;

ALBION         CLOUDY    69  63  80 SE8       29.91S
BLAIR          CLEAR     71  61  70 S9        29.96S
COLUMBUS *     MOCLDY    72  61  68 SE10      29.90S
FREMONT        PTCLDY    72  63  72 SE10      29.94S
TEKAMAH        PTCLDY    68  63  84 SE7       29.94S
6HR MIN TEMP:  68; 6HR MAX TEMP:  82;

WAYNE          MOCLDY    69  65  86 SE12      29.92S
$$

NEZ050>053-065>068-078-088>093-050700-
SOUTHEAST NEBRASKA

CITY           SKY/WX    TMP DP  RH WIND       PRES   REMARKS
LINCOLN        PTCLDY    72  64  76 S13       29.95S
6HR MIN TEMP:  72; 6HR MAX TEMP:  82;

OMAHA EPPLEY   CLEAR     70  62  76 S9        29.96R
6HR MIN TEMP:  70; 6HR MAX TEMP:  81;

BEATRICE       PTCLDY    72  64  76 SE13      29.95F
FALLS CITY     CLEAR     68  63  84 SE8       29.98R
6HR MIN TEMP:  67; 6HR MAX TEMP:  80;

NEBRASKA CITY  CLEAR     67  60  78 S7        29.98S
PLATTSMOUTH    CLEAR     69  61  74 SE9       29.97S
$$

NEZ044-045-051>053-067-050700-
OMAHA AREA

CITY           SKY/WX    TMP DP  RH WIND       PRES   REMARKS
OMAHA EPPLEY   CLEAR     70  62  76 S9        29.96R
6HR MIN TEMP:  70; 6HR MAX TEMP:  81;

BLAIR          CLEAR     71  61  70 S9        29.96S
FREMONT        PTCLDY    72  63  72 SE10      29.94S
MILLARD        CLEAR     69  64  82 SE5       29.96R
OFFUTT AFB     CLEAR     67  62  83 E7        29.95S
PLATTSMOUTH    CLEAR     69  61  74 SE9       29.97S
WAHOO          FAIR      68  65  88 SE7       29.95R
$$


USA.gov is the U.S. government's official web portal to all federal, state and local government web resources and services.